Location: San Martino di Castrozza
(46.2667°N, 11.8000°E)
Time: 02:50:02
(UTC+00:00)

IKONOS-2 - Pass Details

Date: 23 April 2021
Orbit: 599 x 611 km, 98.2° (Epoch: 15 May)

Event Time Altitude Azimuth Distance (km) Brightness Sun altitude
Exits shadow 02:00:54 44° 188° (S) 851 4.9 -19.9°
Maximum altitude 02:02:09 70° 257° (WSW) 652 4.4 -19.8°
Drops below altitude 10° 02:06:27 10° 342° (NNW) 1,977 7.5 -19.2°
Sets 02:08:39 0° 345° (NNW) 2,886 8.4 -19.0°
